STARLINK-35305 (66561 NORAD) Tracking and Keplerian Element Data

This shows tracking and keplerian element data for the satellite.

Feedback or suggestion? Click here.




ElementValue
Catalog66561
NameSTARLINK-35305
Epoch Orbit582
Epoch Day354.25003472
Epoch Year2025
RAAN77.2407
Inclination43.0005
Eccentricity0.0001764
Argument of Perigee290.9175
Mean Anonmoly36.1585
Mean Motion15.54167626
Decay Rate0.02872237
L11 66561U 25268E 25354.25003472 .02872237 00000+0 38233-1 0 9999
L22 66561 43.0005 77.2407 0001764 290.9175 36.1585 15.54167626 5822



Live tracking and technical data element details for STARLINK-35305 (NORAD 66561). STARLINK-35305 can be tracked NOW for your location showing map with azimuth and elevation plus other details from your city location.







IsCatalogInMostPopularTable: catalog: 66561, numindb: 7
Update: records affected: 1



GetName: 66561 STARLINK-35305

Hit Count: updated at: Sat, 07 Feb 2026 09:06:38 GMT